Content
SEND FEEDBACK

Daily
Averages
Monthly
Summary
United States of America

DRY RIDGE, KENTUCKY


Home > North America > United States > Kentucky
Elevation: 938 feet     Latitude: 38 39N     Longitude: 084 37W

WEATHER
 
SELECT A DAY
Number of Records: 407,138;   Date Range: 1/1/95 - 7/23/14
 
SHARE

PRINT THIS DATA

[ ← Previous Day ]
WEATHER ALMANAC - JANUARY 31, 2013
[ Next Day → ]
[ °C ]   °F
Weather ElementAverageHighLow
Temperature27 °F30.9 °F (1:53 am)19 °F (11:53 pm)
Dewpoint18.1 °F24.8 °F (9:02 pm)10.9 °F (9:53 am)
Humidity70.1 %86 % (9:02 pm)49 % (11:53 am)
Barometer29.93 in30.09 in (11:53 pm)29.70 in (1:53 am)
Wind Speed16 mph24.2 mph (2:21 am)
Wind Gust36.8 mph (9:28 pm)
Weather ElementAverage
Visibility6.8 mi
Wind DirectionW (272.3 °)

Weather ElementTotal
Precipitation---
Heating Degree Days40.1 (Base 65)
Averaged from 35 records on January 31, 2013
WEATHER CONDITIONS BREAKOUT
WIND DIRECTION BREAKOUT
WEATHER BY HOUR - JANUARY 31, 2013
[ °C ]   °F
Local TimeTemperatureDewpointHumidityBarometerVisibilityWind DirectionWind SpeedGust SpeedPrecipitationEventsConditions
1:53 AM30.9 °F21.9 °F69 %29.70 in10.0 miWest (270°)20.7 mph31.1 mphOvercast
2:21 AM30.2 °F21.2 °F69 %29.72 in10.0 miWest (270°)24.2 mph35.7 mphOvercast
2:53 AM30.0 °F21.9 °F72 %29.74 in10.0 miWSW (250°)23.0 mph29.9 mphOvercast
3:53 AM28.9 °F19.9 °F69 %29.78 in10.0 miWest (270°)23.0 mph32.2 mphOvercast
4:17 AM28.4 °F17.6 °F64 %29.78 in10.0 miWSW (250°)18.4 mph29.9 mphOvercast
4:53 AM28.0 °F17.1 °F63 %29.80 in10.0 miWest (270°)16.1 mph24.2 mph0.00 inOvercast
5:53 AM28.0 °F18.0 °F66 %29.81 in9.0 miWest (270°)17.3 mph28.8 mph0.00 inOvercast
6:53 AM28.0 °F17.1 °F63 %29.85 in9.0 miWest (270°)21.9 mph31.1 mph0.00 inSnowLight Snow
7:53 AM28.0 °F15.1 °F58 %29.88 in10.0 miWSW (250°)20.7 mph33.4 mph0.00 inOvercast
8:53 AM26.1 °F12.9 °F58 %29.93 in10.0 miWest (260°)24.2 mph32.2 mph0.00 inOvercast
9:53 AM26.1 °F10.9 °F53 %29.96 in10.0 miWest (270°)16.1 mph29.9 mph0.00 inOvercast
10:53 AM27.0 °F10.9 °F51 %29.98 in10.0 miWest (270°)18.4 mph26.5 mphOvercast
11:53 AM28.9 °F12.0 °F49 %29.98 in10.0 miWest (260°)13.8 mph23.0 mphOvercast
12:53 PM28.9 °F15.1 °F56 %29.97 in10.0 miWSW (250°)18.4 mph27.6 mphOvercast
1:53 PM30.9 °F18.0 °F59 %29.96 in10.0 miWSW (250°)18.4 mph25.3 mphOvercast
2:53 PM30.0 °F18.0 °F61 %29.95 in9.0 miWest (270°)11.5 mph0.00 inOvercast
3:53 PM30.9 °F21.0 °F67 %29.96 in9.0 miWSW (240°)16.1 mph26.5 mph0.00 inOvercast
4:53 PM30.9 °F16.0 °F54 %29.95 in10.0 miSW (230°)20.7 mph27.6 mphOvercast
5:53 PM30.0 °F16.0 °F56 %29.94 in10.0 miWSW (250°)11.5 mphMostly Cloudy
6:53 PM28.9 °F19.9 °F69 %29.96 in10.0 miWSW (240°)16.1 mph24.2 mphOvercast
7:53 PM28.9 °F21.9 °F75 %29.96 in9.0 miWSW (240°)13.8 mph0.00 inOvercast
8:53 PM28.9 °F23.0 °F78 %29.96 in4.0 miWest (280°)15.0 mph21.9 mph0.00 inSnowLight Snow
9:02 PM28.4 °F24.8 °F86 %29.94 in3.0 miWest (280°)13.8 mph21.9 mph0.00 inSnowLight Snow
9:05 PM28.4 °F24.8 °F86 %29.95 in1.5 miWest (280°)18.4 mph26.5 mph0.00 inSnowLight Snow
9:28 PM26.6 °F23.0 °F86 %29.96 in1.0 miWNW (290°)13.8 mph36.8 mph0.00 inSnowLight Snow
9:38 PM24.8 °F21.2 °F86 %29.97 in1.5 miWNW (290°)10.4 mph17.3 mph0.00 inSnowLight Snow
9:48 PM24.8 °F21.2 °F86 %29.98 in3.0 miWNW (300°)11.5 mph21.9 mphSnowLight Snow
9:53 PM25.0 °F19.9 °F81 %30.00 in3.0 miWNW (300°)13.8 mph21.9 mph0.00 inSnowLight Snow
10:11 PM23.0 °F19.4 °F86 %29.99 in0.8 miWest (280°)15.0 mph27.6 mph0.00 inSnowLight Snow
10:39 PM23.0 °F17.6 °F80 %30.01 in1.5 miNW (310°)11.5 mph18.4 mph0.00 inSnowLight Snow
10:44 PM21.2 °F15.8 °F80 %30.02 in3.0 miWNW (290°)15.0 mph19.6 mph0.00 inSnowLight Snow
10:53 PM21.9 °F15.1 °F75 %30.04 in4.0 miWNW (290°)9.2 mph20.7 mph0.00 inSnowLight Snow
11:08 PM21.2 °F15.8 °F80 %30.03 in2.0 miNW (310°)5.8 mph0.00 inSnowLight Snow
11:42 PM19.4 °F15.8 °F86 %30.06 in1.0 miNW (310°)13.8 mph28.8 mph0.00 inSnowLight Snow
11:53 PM19.0 °F12.9 °F77 %30.09 in2.0 miNW (320°)10.4 mph26.5 mph0.00 inSnowLight Snow
Hourly data recorded from KLUK, located miles away from Dry Ridge, Kentucky







STORIES FROM OUR PARTNERS